Portada
METAR-TAF:

METAR-TAF

Aeroports :

Metropolis Municipal Airport

Metropolis, Illinois, Estats Units d'Amèrica

latitud: 37-11-09N, longitud: 088-45-02W, altitud: 117 m

Observació

L'informe es va fer fa 27 minuts, a les 11:55 UTC
Vent 5 kt del Sud
Temperatura 23°C
Humitat 69%
Pressió 1012 hPa
Visibilitat: 16.1 km
Cel cobert a una alçada de 3600 ft

METAR: KM30 221155Z AUTO 18005KT 10SM OVC036 23/17 A2987 RMK AO2 T02320171 10240 20229

Hora: 07:22 (12:22 UTC)


TAF: manca

Observacions i pronòstics meteorològics de més de 4000 aeroports (METAR i TAF).

Les estacions disponibles són els punts grocs i vermells al mapa.

Posi el ratolí al punt desitjat per veure el nom de l'estació.

Feu clic per veure les observacions i els pronòstics meteorològics.

Per canviar el mapa: feu clic els botons verds amb una creu de color negre per apropar; al botó verd amb un guió per allunyar la imatge; o en les fletxes verdes per a mapes adjacents.


METAR-TAF: